Weather reports worldwide

Advertisment
Loftus, United Kingdom (3275): temperature & dewpoint: 15.10.2017 06:00:00 - 21.10.2017 06:00:00 (BST)Loftus, United Kingdom (3275): temperature -20cm & temperature -100cm: 15.10.2017 06:00:00 - 21.10.2017 06:00:00 (BST)Loftus, United Kingdom (3275): wind speed & gusts: 15.10.2017 06:00:00 - 21.10.2017 06:00:00 (BST)Loftus, United Kingdom (3275): wind direction: 15.10.2017 06:00:00 - 21.10.2017 06:00:00 (BST)Loftus, United Kingdom (3275): reduced air pressure: 15.10.2017 06:00:00 - 21.10.2017 06:00:00 (BST)Loftus, United Kingdom (3275): visibility: 15.10.2017 06:00:00 - 21.10.2017 06:00:00 (BST)Loftus, United Kingdom (3275): precipitation: 15.10.2017 06:00:00 - 21.10.2017 06:00:00 (BST)
Date & Time tt [°C] td [°C] tt -20cm [°C] tt -100cm [°C] ff [km/h] ff [kn] fx [km/h] fx [kn] dd ppp [hPa] vv [km] rr [mm]
21.10.2017 06:00:00 - - - - - - - - - - - -
21.10.2017 05:00:00 11,4 11,1 - - 29 16 48 26 S 996,0 12 -
21.10.2017 04:00:00 10,9 10,5 - - 31 17 50 27 S 996,6 9 -
21.10.2017 03:00:00 10,1 9,7 - - 37 20 59 32 S 997,6 4,8 -
21.10.2017 02:00:00 9,9 8,8 - - 24 13 - - SE 998,6 5 -
21.10.2017 01:00:00 10,0 7,9 - - 26 14 - - SE 999,9 22 -
21.10.2017 00:00:00 9,8 7,3 - - 22 12 48 26 ESE 1000,8 25 -
20.10.2017 23:00:00 9,9 7,4 - - 28 15 - - S 1001,4 35 -
20.10.2017 22:00:00 10,1 7,8 - - 26 14 - - S 1002,7 35 -
20.10.2017 21:00:00 10,4 8,8 - - 26 14 - - SSW 1003,1 30 0,0
20.10.2017 20:00:00 10,8 9,1 - - 21 11 - - SW 1003,1 50 0,0
20.10.2017 19:00:00 12,0 10,2 - - 26 14 - - SW 1003,3 50 0,0
20.10.2017 18:00:00 13,0 11,1 - - 26 14 - - SW 1002,6 40 0,0
20.10.2017 17:00:00 13,7 12,6 - - 8 4 - - SSW 1002,1 30 0,0
20.10.2017 16:00:00 13,9 12,7 - - 5 3 - - WSW 1002,1 9 0,0
20.10.2017 15:00:00 14,4 12,8 - - 5 3 - - WSW 1001,6 10 0,0
20.10.2017 14:00:00 14,6 12,6 - - 5 3 - - NW 1001,0 12 0,0
20.10.2017 13:00:00 13,1 11,8 - - 5 3 - - NW 1000,7 6 0,0
20.10.2017 12:00:00 14,8 12,7 - - 11 6 - - W 1000,0 40 0,0
20.10.2017 11:00:00 14,7 12,4 - - 11 6 - - WSW 999,1 28 0,0
20.10.2017 10:00:00 12,9 11,4 12,7 12,7 8 4 - - SW 998,5 13 0,0
20.10.2017 09:00:00 11,0 9,9 - - 9 5 - - S 997,6 30 0,0
20.10.2017 08:00:00 10,4 9,7 - - 9 5 - - S 996,9 17 0,0
20.10.2017 07:00:00 11,0 10,1 - - 15 8 - - SSE 996,1 23 0,0
20.10.2017 06:00:00 11,7 11,0 - - 15 8 - - SSE 995,8 14 0,0
20.10.2017 05:00:00 12,5 11,7 - - 18 10 - - SSE 995,3 17 0,0
20.10.2017 04:00:00 12,7 12,3 - - 11 6 - - SE 995,4 6 0,4
20.10.2017 03:00:00 13,1 12,2 - - 21 11 - - SE 995,4 10 0,0
20.10.2017 02:00:00 12,8 12,3 - - 29 16 - - SSE 995,8 6 0,0
20.10.2017 01:00:00 12,8 12,2 - - 34 18 - - SSE 996,1 6 0,0
20.10.2017 00:00:00 12,5 11,5 - - 28 15 - - SSE 996,5 12 0,0
19.10.2017 23:00:00 12,6 11,3 - - 26 14 57 31 S 996,8 17 0,0
19.10.2017 22:00:00 13,3 11,6 - - 39 21 55 30 S 996,4 13 0,0
19.10.2017 21:00:00 14,3 13,9 - - 31 17 - - S 996,5 5 0,2
19.10.2017 20:00:00 13,8 13,7 - - 28 15 - - SSE 996,8 3,1 0,0
19.10.2017 19:00:00 12,8 12,8 - - 22 12 - - SE 997,5 3,1 0,0
19.10.2017 18:00:00 12,2 12,2 - - 24 13 - - ESE 998,7 0,1 0,0
19.10.2017 17:00:00 12,2 12,2 - - 22 12 - - E 999,5 - 0,6
19.10.2017 16:00:00 12,0 11,8 - - 21 11 - - ESE 1000,9 3,9 2,8
19.10.2017 15:00:00 12,2 11,7 - - 13 7 - - SE 1002,1 9 0,8
19.10.2017 14:00:00 13,0 12,2 - - 15 8 - - SE 1003,2 6 0,2
19.10.2017 13:00:00 13,5 12,0 - - 28 15 - - SSE 1003,9 6 0,0
19.10.2017 12:00:00 13,2 12,2 - - 26 14 - - S 1004,1 7 0,0
19.10.2017 11:00:00 12,4 11,9 - - 22 12 - - S 1004,7 4,9 0,0
19.10.2017 10:00:00 12,0 11,9 12,5 12,7 15 8 - - S 1005,0 3,2 0,0
19.10.2017 09:00:00 11,8 11,4 - - 21 11 - - S 1005,4 5 0,0
19.10.2017 08:00:00 11,7 11,6 - - 15 8 - - S 1005,4 4,0 0,0
19.10.2017 07:00:00 11,8 11,8 - - 22 12 - - SSW 1005,2 2,3 0,0
19.10.2017 06:00:00 11,9 11,9 - - 22 12 - - S 1005,7 2,5 0,0
19.10.2017 05:00:00 12,0 11,9 - - 28 15 - - S 1006,1 2,4 0,0
19.10.2017 04:00:00 11,8 11,7 - - 21 11 - - SSE 1006,9 2,3 0,0
19.10.2017 03:00:00 11,4 11,3 - - 26 14 - - SE 1007,5 3,1 1,0
19.10.2017 02:00:00 11,1 10,9 - - 24 13 - - SE 1008,2 5 0,0
19.10.2017 01:00:00 10,3 10,0 - - 18 10 - - ESE 1008,5 3,8 0,0
19.10.2017 00:00:00 10,1 9,2 - - 22 12 - - SE 1009,4 9 0,0
18.10.2017 23:00:00 10,4 8,3 - - 22 12 - - SE 1009,9 22 0,0
18.10.2017 22:00:00 10,5 9,1 - - 15 8 - - SE 1010,8 12 0,0
18.10.2017 21:00:00 10,4 9,7 - - 18 10 - - ESE 1010,7 13 0,0
18.10.2017 20:00:00 10,3 9,5 - - 18 10 - - SE 1011,2 16 0,0
18.10.2017 19:00:00 10,2 9,1 - - 16 9 - - ESE 1011,4 28 0,0
18.10.2017 18:00:00 10,4 9,2 - - 16 9 - - ESE 1011,6 16 0,0
18.10.2017 17:00:00 10,8 9,4 - - 21 11 - - ESE 1011,8 13 0,0
18.10.2017 16:00:00 10,6 9,0 - - 18 10 - - E 1012,1 15 0,0
18.10.2017 15:00:00 11,7 8,8 - - 16 9 - - E 1012,3 19 0,0
18.10.2017 14:00:00 11,7 8,6 - - 15 8 - - E 1012,7 19 0,0
18.10.2017 13:00:00 12,0 8,0 - - 13 7 - - ENE 1013,4 35 0,0
18.10.2017 12:00:00 11,9 8,1 - - 9 5 - - ESE 1013,9 16 0,0
18.10.2017 11:00:00 11,2 7,9 - - 5 3 - - ESE 1014,1 30 0,0
18.10.2017 10:00:00 10,0 8,1 12,5 12,7 5 3 - - E 1014,4 40 0,0
18.10.2017 09:00:00 8,8 8,5 - - 2 1 - - ESE 1014,4 15 0,0
18.10.2017 08:00:00 7,6 7,3 - - 4 2 - - S 1014,3 12 0,0
18.10.2017 07:00:00 7,3 6,8 - - 2 1 - - NNW 1014,2 14 0,0
18.10.2017 06:00:00 7,9 6,8 - - 5 3 - - NW 1014,2 20 0,0
18.10.2017 05:00:00 9,0 7,7 - - 5 3 - - W 1014,4 30 0,0
18.10.2017 04:00:00 9,2 7,6 - - 8 4 - - W 1014,6 25 0,0
18.10.2017 03:00:00 9,6 7,8 - - 8 4 - - W 1014,9 26 0,0
18.10.2017 02:00:00 9,6 7,9 - - 9 5 - - W 1015,2 29 0,0
18.10.2017 01:00:00 8,8 7,4 - - 9 5 - - WSW 1015,3 35 0,0
18.10.2017 00:00:00 8,6 7,2 - - 9 5 - - WSW 1015,0 30 0,0
17.10.2017 23:00:00 8,5 6,9 - - 11 6 - - WSW 1015,0 20 0,0
17.10.2017 22:00:00 8,9 7,0 - - 13 7 - - WSW 1014,7 28 0,0
17.10.2017 21:00:00 9,7 7,3 - - 22 12 - - WSW 1014,3 29 0,0
17.10.2017 20:00:00 9,9 7,4 - - 28 15 - - WSW 1013,9 21 0,0
17.10.2017 19:00:00 10,3 7,4 - - 26 14 50 27 SW 1014,0 30 0,0
17.10.2017 18:00:00 10,9 7,5 - - 34 18 57 31 WSW 1013,1 30 0,0
17.10.2017 17:00:00 12,4 7,3 - - 39 21 63 34 WSW 1012,2 24 0,0
17.10.2017 16:00:00 13,4 7,1 - - 42 23 68 37 WSW 1012,5 27 0,0
17.10.2017 15:00:00 14,3 7,6 - - 42 23 70 38 WSW 1012,4 26 0,0
17.10.2017 14:00:00 13,6 6,9 - - 37 20 61 33 WSW 1012,4 30 0,0
17.10.2017 13:00:00 13,4 6,9 - - 28 15 63 34 WSW 1012,3 35 0,0
17.10.2017 12:00:00 13,5 7,1 - - 37 20 72 39 WSW 1011,2 28 0,0
17.10.2017 11:00:00 11,8 6,3 - - 48 26 78 42 WSW 1010,0 30 0,0
17.10.2017 10:00:00 11,9 6,5 12,9 12,7 42 23 76 41 WSW 1009,6 45 0,0
17.10.2017 09:00:00 10,9 6,6 - - 52 28 93 50 WSW 1008,1 30 0,0
17.10.2017 08:00:00 11,3 6,2 - - 55 30 85 46 WSW 1006,9 35 0,0
17.10.2017 07:00:00 11,4 5,9 - - 50 27 93 50 WSW 1006,7 40 0,0
17.10.2017 06:00:00 11,5 6,2 - - 61 33 91 49 SW 1005,4 30 0,0
17.10.2017 05:00:00 11,3 6,4 - - 61 33 102 55 SW 1005,5 30 0,0
17.10.2017 04:00:00 11,9 6,9 - - 70 38 106 57 SW 1004,4 25 0,0
17.10.2017 03:00:00 12,3 6,7 - - 72 39 107 58 SW 1003,9 22 0,0
17.10.2017 02:00:00 12,6 6,7 - - 68 37 100 54 SW 1003,9 24 0,0
17.10.2017 01:00:00 12,7 6,4 - - 72 39 102 55 SSW 1003,4 24 0,0
17.10.2017 00:00:00 12,8 6,4 - - 65 35 93 50 SSW 1004,0 20 0,0
16.10.2017 23:00:00 13,4 6,5 - - 55 30 93 50 SSW 1004,9 23 0,0
16.10.2017 22:00:00 13,8 6,7 - - 67 36 104 56 SSW 1004,2 26 0,0
16.10.2017 21:00:00 14,1 6,2 - - 67 36 98 53 SSW 1003,6 22 0,0
16.10.2017 20:00:00 14,6 6,8 - - 50 27 80 43 SSW 1004,3 15 0,0
16.10.2017 19:00:00 15,5 7,0 - - 42 23 76 41 SSW 1004,4 12 -
16.10.2017 18:00:00 16,5 10,3 - - 41 22 67 36 S 1004,0 11 0,0
16.10.2017 17:00:00 18,0 12,7 - - 46 25 68 37 S 1004,1 14 0,0
16.10.2017 16:00:00 18,0 14,4 - - 46 25 72 39 S 1004,1 16 0,0
16.10.2017 15:00:00 18,0 15,0 - - 44 24 55 30 S 1005,9 13 0,0
16.10.2017 14:00:00 17,2 14,8 - - 39 21 54 29 SSE 1007,1 9 0,0
16.10.2017 13:00:00 15,9 14,2 - - 34 18 48 26 SSE 1009,1 6 0,0
16.10.2017 12:00:00 15,5 13,7 - - 29 16 - - ESE 1010,0 6 0,0
16.10.2017 11:00:00 13,9 12,6 - - 13 7 - - SW 1012,7 6 0,0
16.10.2017 10:00:00 13,2 12,4 13,0 12,7 16 9 - - ESE 1010,9 4,4 0,0
16.10.2017 09:00:00 13,3 12,3 - - 16 9 - - SSE 1012,8 3,6 0,0
16.10.2017 08:00:00 12,6 11,7 - - 22 12 - - SSE 1013,2 4,3 0,0
16.10.2017 07:00:00 12,6 11,5 - - 13 7 - - SSE 1014,0 6 0,0
16.10.2017 06:00:00 12,6 11,0 - - 5 3 - - S 1013,7 7 0,0
16.10.2017 05:00:00 13,3 11,4 - - 15 8 - - SW 1014,4 9 0,0
16.10.2017 04:00:00 13,3 11,2 - - 13 7 - - SSW 1014,2 10 0,0
16.10.2017 03:00:00 12,7 10,8 - - 11 6 - - SSW 1014,3 9 0,0
16.10.2017 02:00:00 12,1 10,4 - - 13 7 - - S 1014,5 10 0,0
16.10.2017 01:00:00 11,5 9,6 - - 11 6 - - SSW 1014,7 11 0,0
16.10.2017 00:00:00 12,3 9,8 - - 13 7 - - SSW 1014,6 14 0,0
15.10.2017 23:00:00 13,3 10,1 - - 11 6 - - SSW 1014,6 13 0,0
15.10.2017 22:00:00 13,9 10,8 - - 18 10 - - SSW 1014,7 13 0,0
15.10.2017 21:00:00 14,6 11,4 - - 16 9 - - SSW 1014,2 13 0,0
15.10.2017 20:00:00 15,0 11,7 - - 15 8 - - SSW 1014,1 18 0,0
15.10.2017 19:00:00 15,3 11,6 - - 16 9 - - SSW 1013,5 20 0,0
15.10.2017 18:00:00 15,2 11,4 - - 16 9 - - SW 1012,9 30 0,0
15.10.2017 17:00:00 16,4 11,8 - - 22 12 - - SW 1012,4 28 0,0
15.10.2017 16:00:00 18,0 12,1 - - 34 18 46 25 WSW 1012,0 28 0,0
15.10.2017 15:00:00 17,1 12,3 - - 31 17 - - WSW 1012,0 28 0,0
15.10.2017 14:00:00 17,2 12,5 - - 31 17 46 25 SW 1012,1 18 0,0
15.10.2017 13:00:00 16,6 12,4 - - 37 20 55 30 SW 1012,0 30 0,0
15.10.2017 12:00:00 16,3 12,8 - - 31 17 57 31 SSW 1012,3 15 0,0
15.10.2017 11:00:00 15,0 12,6 - - 42 23 63 34 SSW 1011,9 13 0,0
15.10.2017 10:00:00 13,8 12,1 13,0 12,7 42 23 57 31 SSW 1012,5 10 0,0
15.10.2017 09:00:00 12,8 11,8 - - 37 20 50 27 SSW 1013,0 8 0,0
15.10.2017 08:00:00 11,8 11,0 - - 29 16 - - SSW 1013,5 8 0,0
15.10.2017 07:00:00 12,1 10,8 - - 15 8 - - S 1013,9 14 0,0
15.10.2017 06:00:00 12,2 11,1 - - 22 12 54 29 SSW 1013,9 12 0,0

tt = temperature
td = dewpoint
tt -20cm = temperature -20cm
tt -100cm = temperature -100cm
ff = wind speed
fx = gusts
dd = wind direction
ppp = reduced air pressure
vv = visibility
rr = precipitation

Next stations